Year,Month,Day,Hour,Minute,Value (Times are PST for temperature in C)
2009,04,29,00,00,8.80
2009,04,29,00,01,8.80
2009,04,29,00,02,8.80
2009,04,29,00,03,8.70
2009,04,29,00,04,8.70
2009,04,29,00,05,8.70
2009,04,29,00,06,8.70
2009,04,29,00,07,8.70
2009,04,29,00,08,8.70
2009,04,29,00,09,8.60
2009,04,29,00,10,8.60
2009,04,29,00,11,8.60
2009,04,29,00,12,8.50
2009,04,29,00,13,8.50
2009,04,29,01,02,7.70
2009,04,29,01,03,7.60
2009,04,29,01,04,7.60
2009,04,29,01,05,7.60
2009,04,29,01,06,7.60
2009,04,29,01,07,7.60
2009,04,29,01,08,7.50
2009,04,29,01,09,7.50
2009,04,29,01,10,7.50
2009,04,29,01,11,7.40
2009,04,29,01,12,7.40
2009,04,29,01,13,7.40
2009,04,29,01,14,7.30
2009,04,29,01,15,7.30
2009,04,29,01,16,7.30
2009,04,29,01,17,7.30
2009,04,29,01,18,7.30
2009,04,29,01,19,7.30
2009,04,29,01,20,7.30
2009,04,29,01,21,7.30
2009,04,29,01,22,7.30
2009,04,29,01,23,7.20
2009,04,29,01,24,7.20
2009,04,29,01,25,7.20
2009,04,29,01,26,7.20
2009,04,29,01,27,7.20
2009,04,29,01,28,7.10
2009,04,29,01,29,7.10
2009,04,29,01,30,7.10
2009,04,29,01,31,7.10
2009,04,29,01,32,7.10
2009,04,29,01,33,7.10
2009,04,29,01,34,7.10
2009,04,29,01,35,7.10
2009,04,29,01,36,7.10
2009,04,29,01,37,7.10
2009,04,29,01,38,7.10
2009,04,29,01,39,7.10
2009,04,29,01,40,7.10
2009,04,29,01,41,7.10
2009,04,29,01,42,7.10
2009,04,29,01,43,7.10
2009,04,29,01,44,7.10
2009,04,29,01,45,7.10
2009,04,29,01,46,7.10
2009,04,29,01,47,7.10
2009,04,29,01,48,7.10
2009,04,29,01,49,7.10
2009,04,29,01,50,7.10
2009,04,29,01,51,7.10
2009,04,29,01,52,7.10
2009,04,29,01,53,7.00
2009,04,29,01,54,7.00
2009,04,29,01,55,7.00
2009,04,29,01,56,7.00
2009,04,29,01,57,7.00
2009,04,29,01,58,6.90
2009,04,29,01,59,6.90
2009,04,29,02,00,6.90
2009,04,29,02,01,6.80
2009,04,29,02,02,6.80
2009,04,29,02,03,6.80
2009,04,29,02,04,6.80
2009,04,29,02,05,6.80
2009,04,29,02,06,6.70
2009,04,29,02,07,6.70
2009,04,29,02,08,6.70
2009,04,29,02,09,6.70
2009,04,29,02,10,6.70
2009,04,29,02,11,6.60
2009,04,29,02,12,6.60
2009,04,29,02,13,6.60
2009,04,29,02,14,6.60
2009,04,29,02,15,6.60
2009,04,29,02,16,6.60
2009,04,29,02,17,6.60
2009,04,29,02,18,6.60
2009,04,29,02,19,6.40
2009,04,29,02,20,6.40
2009,04,29,02,21,6.40
2009,04,29,02,22,6.40
2009,04,29,02,23,6.40
2009,04,29,02,24,6.40
2009,04,29,02,25,6.40
2009,04,29,02,26,6.40
2009,04,29,02,27,6.40
2009,04,29,02,28,6.40
2009,04,29,02,29,6.40
2009,04,29,02,30,6.30
2009,04,29,02,31,6.30
2009,04,29,02,32,6.30
2009,04,29,02,33,6.30
2009,04,29,02,34,6.30
2009,04,29,02,35,6.20
2009,04,29,02,36,6.20
2009,04,29,02,37,6.20
2009,04,29,02,38,6.20
2009,04,29,02,39,6.20
2009,04,29,02,40,6.20
2009,04,29,02,41,6.20
2009,04,29,02,42,6.20
2009,04,29,02,43,6.20
2009,04,29,02,44,6.20
2009,04,29,02,45,6.20
2009,04,29,02,46,6.20
2009,04,29,02,47,6.20
2009,04,29,02,48,6.20
2009,04,29,02,49,6.20
2009,04,29,02,50,6.20
2009,04,29,02,51,6.20
2009,04,29,02,52,6.20
2009,04,29,02,53,6.20
2009,04,29,02,54,6.20
2009,04,29,02,55,6.20
2009,04,29,02,56,6.20
2009,04,29,02,57,6.20
2009,04,29,02,58,6.20
2009,04,29,02,59,6.20
2009,04,29,03,00,6.20
2009,04,29,03,01,6.20
2009,04,29,03,02,6.20
2009,04,29,03,03,6.20
2009,04,29,03,04,6.20
2009,04,29,03,05,6.10
2009,04,29,03,06,6.10
2009,04,29,03,07,6.10
2009,04,29,03,08,6.10
2009,04,29,03,09,6.10
2009,04,29,03,10,6.10
2009,04,29,03,11,6.10
2009,04,29,03,12,6.10
2009,04,29,03,13,6.10
2009,04,29,03,14,6.10
2009,04,29,03,15,6.10
2009,04,29,03,16,6.10
2009,04,29,03,17,6.10
2009,04,29,03,18,6.10
2009,04,29,03,19,6.10
2009,04,29,03,20,6.10
2009,04,29,03,21,6.20
2009,04,29,03,22,6.20
2009,04,29,03,23,6.20
2009,04,29,03,24,6.20
2009,04,29,03,25,6.20
2009,04,29,03,26,6.20
2009,04,29,03,27,6.10
2009,04,29,03,28,6.10
2009,04,29,03,29,6.10
2009,04,29,03,30,6.10
2009,04,29,03,31,6.10
2009,04,29,03,32,6.10
2009,04,29,03,33,6.10
2009,04,29,03,34,6.10
2009,04,29,03,35,6.00
2009,04,29,03,36,6.00
2009,04,29,03,37,6.00
2009,04,29,03,38,6.00
2009,04,29,03,39,6.00
2009,04,29,03,40,6.00
2009,04,29,03,41,5.90
2009,04,29,03,42,5.90
2009,04,29,03,43,5.90
2009,04,29,03,44,5.90
2009,04,29,03,45,5.90
2009,04,29,03,46,5.90
2009,04,29,03,47,5.90
2009,04,29,03,48,5.90
2009,04,29,03,49,5.90
2009,04,29,03,50,5.90
2009,04,29,03,51,5.90
2009,04,29,03,52,5.90
2009,04,29,03,53,6.00
2009,04,29,03,54,6.00
2009,04,29,03,55,6.00
2009,04,29,03,56,6.00
2009,04,29,03,57,6.00
2009,04,29,03,58,6.00
2009,04,29,03,59,6.00
2009,04,29,04,00,5.90
2009,04,29,04,01,5.90
2009,04,29,04,02,5.90
2009,04,29,04,03,5.90
2009,04,29,04,04,5.90
2009,04,29,04,05,5.90
2009,04,29,04,06,5.80
2009,04,29,04,07,5.80
2009,04,29,04,08,5.80
2009,04,29,04,09,5.80
2009,04,29,04,10,5.80
2009,04,29,04,11,5.80
2009,04,29,04,12,5.80
2009,04,29,04,13,5.80
2009,04,29,04,14,5.80
2009,04,29,04,15,5.80
2009,04,29,04,16,5.80
2009,04,29,04,17,5.90
2009,04,29,04,18,5.90
2009,04,29,04,19,5.90
2009,04,29,04,20,5.90
2009,04,29,04,21,6.00
2009,04,29,04,22,6.00
2009,04,29,04,23,6.00
2009,04,29,04,24,6.10
2009,04,29,04,25,6.10
2009,04,29,04,26,6.20
2009,04,29,04,27,6.20
2009,04,29,04,28,6.20
2009,04,29,04,29,6.20
2009,04,29,04,30,6.20
2009,04,29,04,31,6.20
2009,04,29,04,32,6.20
2009,04,29,04,33,6.20
2009,04,29,04,34,6.20
2009,04,29,04,35,6.20
2009,04,29,04,36,6.20
2009,04,29,04,37,6.20
2009,04,29,04,38,6.20
2009,04,29,04,39,6.20
2009,04,29,04,40,6.20
2009,04,29,04,41,6.20
2009,04,29,04,42,6.20
2009,04,29,04,43,6.20
2009,04,29,04,44,6.20
2009,04,29,04,45,6.20
2009,04,29,04,46,6.20
2009,04,29,04,47,6.20
2009,04,29,04,48,6.20
2009,04,29,04,49,6.20
2009,04,29,04,50,6.20
2009,04,29,04,51,6.20
2009,04,29,04,52,6.20
2009,04,29,04,53,6.20
2009,04,29,04,54,6.20
2009,04,29,04,55,6.20
2009,04,29,04,56,6.20
2009,04,29,04,57,6.20
2009,04,29,04,58,6.10
2009,04,29,04,59,6.10
2009,04,29,05,00,6.10
2009,04,29,05,01,6.10
2009,04,29,05,02,6.10
2009,04,29,05,03,6.10
2009,04,29,05,04,6.10
2009,04,29,05,05,6.10
2009,04,29,05,06,6.10
2009,04,29,05,07,6.10
2009,04,29,05,08,6.20
2009,04,29,05,09,6.20
2009,04,29,05,10,6.20
2009,04,29,05,11,6.20
2009,04,29,05,12,6.20
2009,04,29,05,13,6.20
2009,04,29,05,14,6.20
2009,04,29,05,15,6.20
2009,04,29,05,16,6.20
2009,04,29,05,17,6.20
2009,04,29,05,18,6.20
2009,04,29,05,19,6.20
2009,04,29,05,20,6.20
2009,04,29,05,21,6.20
2009,04,29,05,22,6.20
2009,04,29,05,23,6.20
2009,04,29,05,24,6.10
2009,04,29,05,25,6.10
2009,04,29,05,26,6.10
2009,04,29,05,27,6.10
2009,04,29,05,28,6.10
2009,04,29,05,29,6.10
2009,04,29,05,30,6.10
2009,04,29,05,31,6.00
2009,04,29,05,32,6.00
2009,04,29,05,33,6.00
2009,04,29,05,34,6.00
2009,04,29,05,35,6.00
2009,04,29,05,36,6.00
2009,04,29,05,37,6.00
2009,04,29,05,38,6.00
2009,04,29,05,39,6.00
2009,04,29,05,40,5.90
2009,04,29,05,41,5.90
2009,04,29,05,42,5.90
2009,04,29,05,43,5.90
2009,04,29,05,44,5.90
2009,04,29,05,45,5.90
2009,04,29,05,46,5.80
2009,04,29,05,47,5.80
2009,04,29,05,48,5.80
2009,04,29,05,49,5.80
2009,04,29,05,50,5.80
2009,04,29,05,51,5.80
2009,04,29,05,52,5.80
2009,04,29,05,53,5.80
2009,04,29,05,54,5.80
2009,04,29,05,55,5.80
2009,04,29,05,56,5.80
2009,04,29,05,57,5.80
2009,04,29,05,58,5.80
2009,04,29,05,59,5.70
2009,04,29,06,00,5.70
2009,04,29,06,01,5.70
2009,04,29,06,02,5.70
2009,04,29,06,03,5.70
2009,04,29,06,04,5.70
2009,04,29,06,05,5.70
2009,04,29,06,06,5.70
2009,04,29,06,07,5.70
2009,04,29,06,08,5.80
2009,04,29,06,09,5.80
2009,04,29,06,10,5.80
2009,04,29,06,11,5.80
2009,04,29,06,12,5.90
2009,04,29,06,13,5.90
2009,04,29,06,14,5.90
2009,04,29,06,15,5.90
2009,04,29,06,16,6.00
2009,04,29,06,17,6.00
2009,04,29,06,18,6.00
2009,04,29,06,19,6.00
2009,04,29,06,20,6.00
2009,04,29,06,21,6.10
2009,04,29,06,22,6.10
2009,04,29,06,23,6.10
2009,04,29,06,24,6.10
2009,04,29,06,25,6.10
2009,04,29,06,26,6.10
2009,04,29,06,27,6.10
2009,04,29,06,28,6.10
2009,04,29,06,29,6.10
2009,04,29,06,30,6.10
2009,04,29,06,31,6.10
2009,04,29,06,32,6.10
2009,04,29,06,33,6.10
2009,04,29,06,34,6.10
2009,04,29,06,35,6.10
2009,04,29,06,36,6.10
2009,04,29,06,37,6.10
2009,04,29,06,38,6.20
2009,04,29,06,39,6.20
2009,04,29,06,40,6.20
2009,04,29,06,41,6.20
2009,04,29,06,42,6.20
2009,04,29,06,43,6.20
2009,04,29,06,44,6.20
2009,04,29,06,45,6.30
2009,04,29,06,46,6.30
2009,04,29,06,47,6.30
2009,04,29,06,48,6.40
2009,04,29,06,49,6.40
2009,04,29,06,50,6.40
2009,04,29,06,51,6.40
2009,04,29,06,52,6.40
2009,04,29,06,53,6.40
2009,04,29,06,54,6.40
2009,04,29,06,55,6.50
2009,04,29,06,56,6.60
2009,04,29,06,57,6.60
2009,04,29,06,58,6.60
2009,04,29,06,59,6.60
2009,04,29,07,00,6.60
2009,04,29,07,01,6.60
2009,04,29,07,02,6.60
2009,04,29,07,03,6.60
2009,04,29,07,04,6.60
2009,04,29,07,05,6.60
2009,04,29,07,06,6.60
2009,04,29,07,07,6.70
2009,04,29,07,08,6.70
2009,04,29,07,09,6.70
2009,04,29,07,10,6.70
2009,04,29,07,11,6.70
2009,04,29,07,12,6.70
2009,04,29,07,13,6.80
2009,04,29,07,14,6.80
2009,04,29,07,15,6.80
2009,04,29,07,16,6.80
2009,04,29,07,17,6.80
2009,04,29,07,18,6.80
2009,04,29,07,19,6.90
2009,04,29,07,20,6.90
2009,04,29,07,21,7.00
2009,04,29,07,22,7.00
2009,04,29,07,23,7.00
2009,04,29,07,24,7.10
2009,04,29,07,25,7.10
2009,04,29,07,26,7.10
2009,04,29,07,27,7.20
2009,04,29,07,28,7.20
2009,04,29,07,29,7.20
2009,04,29,07,30,7.30
2009,04,29,07,31,7.30
2009,04,29,07,32,7.30
2009,04,29,07,33,7.40
2009,04,29,07,34,7.50
2009,04,29,07,35,7.50
2009,04,29,07,36,7.60
2009,04,29,07,37,7.70
2009,04,29,07,38,7.70
2009,04,29,07,39,7.80
2009,04,29,07,40,7.80
2009,04,29,07,41,7.90
2009,04,29,07,42,8.00
2009,04,29,07,43,8.10
2009,04,29,07,44,8.20
2009,04,29,07,45,8.20
2009,04,29,07,46,8.30
2009,04,29,07,47,8.40
2009,04,29,07,48,8.50
2009,04,29,07,49,8.60
2009,04,29,07,50,8.70
2009,04,29,07,51,8.80
2009,04,29,07,52,8.90
2009,04,29,07,53,8.90
2009,04,29,07,54,9.00
2009,04,29,07,55,9.10
2009,04,29,07,56,9.10
2009,04,29,07,57,9.20
2009,04,29,07,58,9.20
2009,04,29,07,59,9.30
2009,04,29,08,00,9.40
2009,04,29,08,01,9.40
2009,04,29,08,02,9.50
2009,04,29,08,03,9.50
2009,04,29,08,04,9.60
2009,04,29,08,05,9.70
2009,04,29,08,06,9.70
2009,04,29,08,07,9.70
2009,04,29,08,08,9.80
2009,04,29,08,09,9.90
2009,04,29,08,10,9.90
2009,04,29,08,11,10.00
2009,04,29,08,12,10.10
2009,04,29,08,13,10.10
2009,04,29,08,14,10.10
2009,04,29,08,15,10.10
2009,04,29,08,16,10.10
2009,04,29,08,17,10.10
2009,04,29,08,18,10.10
2009,04,29,08,19,10.10
2009,04,29,08,20,10.10
2009,04,29,08,21,10.10
2009,04,29,08,22,10.20
2009,04,29,08,23,10.20
2009,04,29,08,24,10.20
2009,04,29,08,25,10.20
2009,04,29,08,26,10.20
2009,04,29,08,27,10.20
2009,04,29,08,28,10.20
2009,04,29,08,29,10.20
2009,04,29,08,30,10.20
2009,04,29,08,31,10.20
2009,04,29,08,32,10.20
2009,04,29,08,33,10.20
2009,04,29,08,34,10.20
2009,04,29,08,35,10.20
2009,04,29,08,36,10.20
2009,04,29,08,37,10.20
2009,04,29,08,38,10.20
2009,04,29,08,39,10.30
2009,04,29,08,40,10.30
2009,04,29,08,41,10.30
2009,04,29,08,42,10.30
2009,04,29,08,43,10.40
2009,04,29,08,44,10.40
2009,04,29,08,45,10.40
2009,04,29,08,46,10.40
2009,04,29,08,47,10.40
2009,04,29,08,48,10.40
2009,04,29,08,49,10.40
2009,04,29,08,50,10.50
2009,04,29,08,51,10.50
2009,04,29,08,52,10.60
2009,04,29,08,53,10.60
2009,04,29,08,54,10.60
2009,04,29,08,55,10.60
2009,04,29,08,56,10.60
2009,04,29,08,57,10.60
2009,04,29,08,58,10.60
2009,04,29,08,59,10.70
2009,04,29,09,00,10.70
2009,04,29,09,01,10.80
2009,04,29,09,02,10.90
2009,04,29,09,03,10.90
2009,04,29,09,04,10.90
2009,04,29,09,05,11.00
2009,04,29,09,06,11.10
2009,04,29,09,07,11.10
2009,04,29,09,08,11.10
2009,04,29,09,09,11.20
2009,04,29,09,10,11.30
2009,04,29,09,11,11.30
2009,04,29,09,12,11.30
2009,04,29,09,13,11.30
2009,04,29,09,14,11.20
2009,04,29,09,15,11.20
2009,04,29,09,16,11.20
2009,04,29,09,17,11.20
2009,04,29,09,18,11.30
2009,04,29,09,19,11.30
2009,04,29,09,20,11.40
2009,04,29,09,21,11.40
2009,04,29,09,22,11.40
2009,04,29,09,23,11.50
2009,04,29,09,24,11.60
2009,04,29,09,25,11.60
2009,04,29,09,26,11.60
2009,04,29,09,27,11.60
2009,04,29,09,28,11.60
2009,04,29,09,29,11.60
2009,04,29,09,30,11.60
2009,04,29,09,31,11.60
2009,04,29,09,32,11.60
2009,04,29,09,33,11.60
2009,04,29,09,34,11.60
2009,04,29,09,35,11.60
2009,04,29,09,36,11.60
2009,04,29,09,37,11.60
2009,04,29,09,38,11.60
2009,04,29,09,39,11.60
2009,04,29,09,40,11.60
2009,04,29,09,41,11.60
2009,04,29,09,42,11.60
2009,04,29,09,43,11.70
2009,04,29,09,44,11.70
2009,04,29,09,45,11.80
2009,04,29,09,46,11.80
2009,04,29,09,47,11.80
2009,04,29,09,48,11.80
2009,04,29,09,49,11.80
2009,04,29,09,50,11.90
2009,04,29,09,51,11.90
2009,04,29,09,52,12.00
2009,04,29,09,53,12.00
2009,04,29,09,54,12.10
2009,04,29,09,55,12.10
2009,04,29,09,56,12.20
2009,04,29,09,57,12.20
2009,04,29,09,58,12.30
2009,04,29,09,59,12.30
2009,04,29,10,00,12.40
2009,04,29,10,01,12.50
2009,04,29,10,02,12.60
2009,04,29,10,03,12.70
2009,04,29,10,04,12.70
2009,04,29,10,05,12.80
2009,04,29,10,06,12.80
2009,04,29,10,07,12.80
2009,04,29,10,08,12.90
2009,04,29,10,09,13.00
2009,04,29,10,10,13.10
2009,04,29,10,11,13.10
2009,04,29,10,12,13.10
2009,04,29,10,13,13.20
2009,04,29,10,14,13.20
2009,04,29,10,15,13.20
2009,04,29,10,16,13.20
2009,04,29,10,17,13.10
2009,04,29,10,18,13.10
2009,04,29,10,19,13.00
2009,04,29,10,20,13.00
2009,04,29,10,21,13.00
2009,04,29,10,22,13.00
2009,04,29,10,23,13.00
2009,04,29,10,24,13.00
2009,04,29,10,25,13.00
2009,04,29,10,26,13.00
2009,04,29,10,27,13.00
2009,04,29,10,28,13.00
2009,04,29,10,29,13.00
2009,04,29,10,30,13.10
2009,04,29,10,31,13.10
2009,04,29,10,32,13.00
2009,04,29,10,33,12.90
2009,04,29,10,34,12.80
2009,04,29,10,35,12.80
2009,04,29,10,36,12.80
2009,04,29,10,37,12.80
2009,04,29,10,38,12.80
2009,04,29,10,39,12.80
2009,04,29,10,40,12.80
2009,04,29,10,41,12.80
2009,04,29,10,42,12.80
2009,04,29,10,43,12.80
2009,04,29,10,44,12.80
2009,04,29,10,45,12.90
2009,04,29,10,46,12.90
2009,04,29,10,47,13.00
2009,04,29,10,48,13.10
2009,04,29,10,49,13.20
2009,04,29,10,50,13.30
2009,04,29,10,51,13.30
2009,04,29,10,52,13.50
2009,04,29,10,53,13.60
2009,04,29,10,54,13.60
2009,04,29,10,55,13.60
2009,04,29,10,56,13.60
2009,04,29,10,57,13.70
2009,04,29,10,58,13.70
2009,04,29,10,59,13.70
2009,04,29,11,00,13.70
2009,04,29,11,01,13.70
2009,04,29,11,02,13.70
2009,04,29,11,03,13.70
2009,04,29,11,04,13.60
2009,04,29,11,05,13.60
2009,04,29,11,06,13.60
2009,04,29,11,07,13.60
2009,04,29,11,08,13.70
2009,04,29,11,09,13.80
2009,04,29,11,10,13.80
2009,04,29,11,11,13.80
2009,04,29,11,12,13.70
2009,04,29,11,13,13.60
2009,04,29,11,14,13.50
2009,04,29,11,15,13.30
2009,04,29,11,16,13.20
2009,04,29,11,17,13.10
2009,04,29,11,18,13.10
2009,04,29,11,19,13.10
2009,04,29,11,20,13.10
2009,04,29,11,21,13.10
2009,04,29,11,22,13.20
2009,04,29,11,23,13.30
2009,04,29,11,24,13.40
2009,04,29,11,25,13.50
2009,04,29,11,26,13.50
2009,04,29,11,27,13.60
2009,04,29,11,28,13.70
2009,04,29,11,29,13.70
2009,04,29,11,30,13.70
2009,04,29,11,31,13.70
2009,04,29,11,32,13.70
2009,04,29,11,33,13.70
2009,04,29,11,34,13.70
2009,04,29,11,35,13.70
2009,04,29,11,36,13.80
2009,04,29,11,37,13.80
2009,04,29,11,38,13.90
2009,04,29,11,39,13.90
2009,04,29,11,40,14.00
2009,04,29,11,41,14.10
2009,04,29,11,42,14.10
2009,04,29,11,43,14.20
2009,04,29,11,44,14.20
2009,04,29,11,45,14.10
2009,04,29,11,46,14.10
2009,04,29,11,47,14.10
2009,04,29,11,48,14.10
2009,04,29,11,49,14.00
2009,04,29,11,50,13.90
2009,04,29,11,51,13.90
2009,04,29,11,52,13.90
2009,04,29,11,53,13.90
2009,04,29,11,54,13.90
2009,04,29,11,55,13.90
2009,04,29,11,56,13.90
2009,04,29,11,57,13.80
2009,04,29,11,58,13.80
2009,04,29,11,59,13.90
2009,04,29,12,00,13.90
2009,04,29,12,01,13.80
2009,04,29,12,02,13.80
2009,04,29,12,03,13.70
2009,04,29,12,04,13.80
2009,04,29,12,05,13.80
2009,04,29,12,06,13.90
2009,04,29,12,07,14.00
2009,04,29,12,08,14.00
2009,04,29,12,09,14.10
2009,04,29,12,10,14.10
2009,04,29,12,11,14.20
2009,04,29,12,12,14.10
2009,04,29,12,13,14.00
2009,04,29,12,14,13.90
2009,04,29,12,15,13.80
2009,04,29,12,16,13.60
2009,04,29,12,17,13.50
2009,04,29,12,18,13.50
2009,04,29,12,19,13.30
2009,04,29,12,20,13.30
2009,04,29,12,21,13.30
2009,04,29,12,22,13.40
2009,04,29,12,23,13.40
2009,04,29,12,24,13.40
2009,04,29,12,25,13.40
2009,04,29,12,26,13.30
2009,04,29,12,27,13.30
2009,04,29,12,28,13.20
2009,04,29,12,29,13.20
2009,04,29,12,30,13.30
2009,04,29,12,31,13.30
2009,04,29,12,32,13.30
2009,04,29,12,33,13.40
2009,04,29,12,34,13.40
2009,04,29,12,35,13.40
2009,04,29,12,36,13.60
2009,04,29,12,37,13.70
2009,04,29,12,38,13.90
2009,04,29,12,39,14.00
2009,04,29,12,40,14.20
2009,04,29,12,41,14.30
2009,04,29,12,42,14.50
2009,04,29,12,43,14.60
2009,04,29,12,44,14.70
2009,04,29,12,45,14.80
2009,04,29,12,46,15.00
2009,04,29,12,47,15.00
2009,04,29,12,48,15.10
2009,04,29,12,49,15.00
2009,04,29,12,50,15.00
2009,04,29,12,51,14.90
2009,04,29,12,52,14.80
2009,04,29,12,53,14.80
2009,04,29,12,54,14.80
2009,04,29,12,55,14.70
2009,04,29,12,56,14.80
2009,04,29,12,57,14.80
2009,04,29,12,58,14.90
2009,04,29,12,59,15.00
2009,04,29,13,00,15.10
2009,04,29,13,01,15.20
2009,04,29,13,02,15.20
2009,04,29,13,03,15.30
2009,04,29,13,04,15.30
2009,04,29,13,05,15.30
2009,04,29,13,06,15.40
2009,04,29,13,07,15.30
2009,04,29,13,08,15.30
2009,04,29,13,09,15.30
2009,04,29,13,10,15.40
2009,04,29,13,11,15.40
2009,04,29,13,12,15.30
2009,04,29,13,13,15.10
2009,04,29,13,14,15.00
2009,04,29,13,15,15.00
2009,04,29,13,16,15.00
2009,04,29,13,17,15.10
2009,04,29,13,18,15.20
2009,04,29,13,19,15.30
2009,04,29,13,20,15.40
2009,04,29,13,21,15.60
2009,04,29,13,22,15.70
2009,04,29,13,23,15.60
2009,04,29,13,24,15.50
2009,04,29,13,25,15.50
2009,04,29,13,26,15.50
2009,04,29,13,27,15.60
2009,04,29,13,28,15.60
2009,04,29,13,29,15.60
2009,04,29,13,30,15.60
2009,04,29,13,31,15.50
2009,04,29,13,32,15.30
2009,04,29,13,33,15.30
2009,04,29,13,34,15.40
2009,04,29,13,35,15.30
2009,04,29,13,36,15.40
2009,04,29,13,37,15.50
2009,04,29,13,38,15.60
2009,04,29,13,39,15.60
2009,04,29,13,40,15.70
2009,04,29,13,41,15.80
2009,04,29,13,42,15.90
2009,04,29,13,43,16.00
2009,04,29,13,44,16.00
2009,04,29,13,45,16.10
2009,04,29,13,46,16.10
2009,04,29,13,47,16.20
2009,04,29,13,48,16.30
2009,04,29,13,49,16.40
2009,04,29,13,50,16.50
2009,04,29,13,51,16.40
2009,04,29,13,52,16.40
2009,04,29,13,53,16.40
2009,04,29,13,54,16.30
2009,04,29,13,55,16.20
2009,04,29,13,56,16.10
2009,04,29,13,57,16.10
2009,04,29,13,58,16.20
2009,04,29,13,59,16.20
2009,04,29,14,00,16.30
2009,04,29,14,01,16.30
2009,04,29,14,02,16.40
2009,04,29,14,03,16.40
2009,04,29,14,04,16.50
2009,04,29,14,05,16.60
2009,04,29,14,06,16.60
2009,04,29,14,07,16.60
2009,04,29,14,08,16.60
2009,04,29,14,09,16.60
2009,04,29,14,10,16.60
2009,04,29,14,11,16.60
2009,04,29,14,12,16.50
2009,04,29,14,13,16.40
2009,04,29,14,14,16.20
2009,04,29,14,15,16.20
2009,04,29,14,16,16.10
2009,04,29,14,17,15.90
2009,04,29,14,18,15.90
2009,04,29,14,19,16.00
2009,04,29,14,20,16.10
2009,04,29,14,21,16.10
2009,04,29,14,22,16.20
2009,04,29,14,23,16.30
2009,04,29,14,24,16.30
2009,04,29,14,25,16.30
2009,04,29,14,26,16.20
2009,04,29,14,27,16.30
2009,04,29,14,28,16.40
2009,04,29,14,29,16.50
2009,04,29,14,30,16.60
2009,04,29,14,31,16.70
2009,04,29,14,32,16.70
2009,04,29,14,33,16.70
2009,04,29,14,34,16.70
2009,04,29,14,35,16.70
2009,04,29,14,36,16.70
2009,04,29,14,37,16.70
2009,04,29,14,38,16.70
2009,04,29,14,39,16.70
2009,04,29,14,40,16.70
2009,04,29,14,41,16.70
2009,04,29,14,42,16.70
2009,04,29,14,43,16.70
2009,04,29,14,44,16.70
2009,04,29,14,45,16.70
2009,04,29,14,46,16.70
2009,04,29,14,47,16.70
2009,04,29,14,48,16.70
2009,04,29,14,49,16.80
2009,04,29,14,50,16.90
2009,04,29,14,51,16.90
2009,04,29,14,52,17.10
2009,04,29,14,53,17.10
2009,04,29,14,54,17.10
2009,04,29,14,55,17.20
2009,04,29,14,56,17.20
2009,04,29,14,57,17.30
2009,04,29,14,58,17.30
2009,04,29,14,59,17.50
2009,04,29,15,00,17.60
2009,04,29,15,01,17.70
2009,04,29,15,02,17.80
2009,04,29,15,03,17.80
2009,04,29,15,04,17.70
2009,04,29,15,05,17.80
2009,04,29,15,06,17.80
2009,04,29,15,07,17.60
2009,04,29,15,08,17.50
2009,04,29,15,09,17.40
2009,04,29,15,10,17.30
2009,04,29,15,11,17.20
2009,04,29,15,12,17.10
2009,04,29,15,13,17.00
2009,04,29,15,14,17.00
2009,04,29,15,15,17.10
2009,04,29,15,16,17.30
2009,04,29,15,17,17.40
2009,04,29,15,18,17.60
2009,04,29,15,19,17.70
2009,04,29,15,20,17.90
2009,04,29,15,21,18.00
2009,04,29,15,22,18.10
2009,04,29,15,23,18.20
2009,04,29,15,24,18.20
2009,04,29,15,25,18.30
2009,04,29,15,26,18.40
2009,04,29,15,27,18.40
2009,04,29,15,28,18.40
2009,04,29,15,29,18.30
2009,04,29,15,30,18.30
2009,04,29,15,31,18.40
2009,04,29,15,32,18.40
2009,04,29,15,33,18.40
2009,04,29,15,34,18.50
2009,04,29,15,35,18.60
2009,04,29,15,36,18.70
2009,04,29,15,37,18.90
2009,04,29,15,38,18.90
2009,04,29,15,39,18.80
2009,04,29,15,40,18.80
2009,04,29,15,41,18.80
2009,04,29,15,42,18.80
2009,04,29,15,43,18.90
2009,04,29,15,44,18.80
2009,04,29,15,45,18.70
2009,04,29,15,46,18.60
2009,04,29,15,47,18.40
2009,04,29,15,48,18.30
2009,04,29,15,49,18.20
2009,04,29,15,50,18.00
2009,04,29,15,51,17.80
2009,04,29,15,52,17.70
2009,04,29,15,53,17.70
2009,04,29,15,54,17.70
2009,04,29,15,55,17.70
2009,04,29,15,56,17.70
2009,04,29,15,57,17.80
2009,04,29,15,58,17.90
2009,04,29,15,59,17.90
2009,04,29,16,00,17.90
2009,04,29,16,01,17.90
2009,04,29,16,02,17.90
2009,04,29,16,03,17.80
2009,04,29,16,04,17.70
2009,04,29,16,05,17.60
2009,04,29,16,06,17.60
2009,04,29,16,07,17.60
2009,04,29,16,08,17.60
2009,04,29,16,09,17.50
2009,04,29,16,10,17.50
2009,04,29,16,11,17.50
2009,04,29,16,12,17.40
2009,04,29,16,13,17.30
2009,04,29,16,14,17.30
2009,04,29,16,15,17.30
2009,04,29,16,16,17.30
2009,04,29,16,17,17.20
2009,04,29,16,18,17.20
2009,04,29,16,19,17.10
2009,04,29,16,20,17.00
2009,04,29,16,21,16.90
2009,04,29,16,22,16.80
2009,04,29,16,23,16.70
2009,04,29,16,24,16.70
2009,04,29,16,25,16.60
2009,04,29,16,26,16.50
2009,04,29,16,27,16.40
2009,04,29,16,28,16.40
2009,04,29,16,29,16.30
2009,04,29,16,30,16.20
2009,04,29,16,31,16.10
2009,04,29,16,32,16.10
2009,04,29,16,33,16.00
2009,04,29,16,34,15.90
2009,04,29,16,35,15.80
2009,04,29,16,36,15.80
2009,04,29,16,37,15.80
2009,04,29,16,38,15.70
2009,04,29,16,39,15.70
2009,04,29,16,40,15.70
2009,04,29,16,41,15.60
2009,04,29,16,42,15.60
2009,04,29,16,43,15.60
2009,04,29,16,44,15.60
2009,04,29,16,45,15.50
2009,04,29,16,46,15.50
2009,04,29,16,47,15.40
2009,04,29,16,48,15.30
2009,04,29,16,49,15.30
2009,04,29,16,50,15.30
2009,04,29,16,51,15.30
2009,04,29,16,52,15.30
2009,04,29,16,53,15.30
2009,04,29,16,54,15.30
2009,04,29,16,55,15.30
2009,04,29,16,56,15.30
2009,04,29,16,57,15.20
2009,04,29,16,58,15.20
2009,04,29,16,59,15.20
2009,04,29,17,00,15.10
2009,04,29,17,01,15.00
2009,04,29,17,02,14.90
2009,04,29,17,03,14.90
2009,04,29,17,04,14.80
2009,04,29,17,05,14.80
2009,04,29,17,06,14.80
2009,04,29,17,07,14.70
2009,04,29,17,08,14.70
2009,04,29,17,09,14.70
2009,04,29,17,10,14.70
2009,04,29,17,11,14.70
2009,04,29,17,12,14.80
2009,04,29,17,13,14.80
2009,04,29,17,14,14.90
2009,04,29,17,15,15.00
2009,04,29,17,16,15.10
2009,04,29,17,17,15.20
2009,04,29,17,18,15.20
2009,04,29,17,19,15.30
2009,04,29,17,20,15.30
2009,04,29,17,21,15.40
2009,04,29,17,22,15.40
2009,04,29,17,23,15.40
2009,04,29,17,24,15.40
2009,04,29,17,25,15.40
2009,04,29,17,26,15.40
2009,04,29,17,27,15.40
2009,04,29,17,28,15.30
2009,04,29,17,29,15.30
2009,04,29,17,30,15.30
2009,04,29,17,31,15.30
2009,04,29,17,32,15.30
2009,04,29,17,33,15.30
2009,04,29,17,34,15.30
2009,04,29,17,35,15.30
2009,04,29,17,36,15.30
2009,04,29,17,37,15.30
2009,04,29,17,38,15.30
2009,04,29,17,39,15.30
2009,04,29,17,40,15.30
2009,04,29,17,41,15.30
2009,04,29,17,42,15.30
2009,04,29,17,43,15.30
2009,04,29,17,44,15.30
2009,04,29,17,45,15.30
2009,04,29,17,46,15.30
2009,04,29,17,47,15.30
2009,04,29,17,48,15.30
2009,04,29,17,49,15.30
2009,04,29,17,50,15.30
2009,04,29,17,51,15.30
2009,04,29,17,52,15.40
2009,04,29,17,53,15.40
2009,04,29,17,54,15.30
2009,04,29,17,55,15.30
2009,04,29,17,56,15.30
2009,04,29,17,57,15.30
2009,04,29,17,58,15.30
2009,04,29,17,59,15.20
2009,04,29,18,00,15.10
2009,04,29,18,01,15.10
2009,04,29,18,02,15.00
2009,04,29,18,03,15.00
2009,04,29,18,04,15.00
2009,04,29,18,05,15.00
2009,04,29,18,06,14.90
2009,04,29,18,07,14.90
2009,04,29,18,08,14.90
2009,04,29,18,09,14.90
2009,04,29,18,10,14.90
2009,04,29,18,11,14.90
2009,04,29,18,12,14.90
2009,04,29,18,13,15.00
2009,04,29,18,14,15.00
2009,04,29,18,15,15.00
2009,04,29,18,16,15.00
2009,04,29,18,17,15.00
2009,04,29,18,18,15.00
2009,04,29,18,19,15.00
2009,04,29,18,20,14.90
2009,04,29,18,21,14.90
2009,04,29,18,22,14.90
2009,04,29,18,23,14.90
2009,04,29,18,24,14.90
2009,04,29,18,25,14.90
2009,04,29,18,26,14.90